User: anonymous   Login
Location: *
(43.4667°N, 11.6833°E)
Time: 03:11:46
(UTC+00:00)
Language:

USA 238 - Orbit

View from above orbital plane
View from above orbital plane
View from above satellite
View from above satellite

Ground track
Ground track

The orbit data is extracted from the following two-line orbital elements,

1 38758U 12048A   19292.84568535 0.00000000  00000-0  00000-0 0    06
2 38758  63.4373 286.4178 0104083   2.4331 357.5669 13.40790131    04
Epoch (UTC): 19 October 2019 20:17:47
Eccentricity: 0.0104083
inclination: 63.4373°
perigee height: 1028 km
apogee height: 1184 km
right ascension of ascending node: 286.4178°
argument of perigee: 2.4331°
revolutions per day: 13.40790131
mean anomaly at epoch: 357.5669°
orbit number at epoch: 0

The dashed part of the orbit path shows where the satellite is in the earth's shadow,  

DLR